[[{"header":{"parameterUnit":"m.s-1","parameterCategory":2,"la1":30.2991,"la2":30.254,"lo1":-89.0895,"lo2":-89.0444,"dy":0.0017,"dx":0.0017,"nx":28,"ny":28,"refTime":"2023-10-08T09:00:00:Z","depth":"0","parameterNumber":2,"parameterNumberName":"U-component_of_CURRENTS"},"data":[0,0,0,0,0,0,0,0,0,0,0,0,0,0,0,0,0,0,0,0,0,0,0,0,0,0,0,0,0,0,0,0,0,0,0,0,0,0,0,0,0,0,0,0,0,0,0,0,0,0,0,0,0,0,0,0,0,0,0.1911,0.1912,0,0.1977,0.1978,0.1979,0.2014,0.2014,0.2014,0.2014,0.2073,0.2075,0.2076,0,0,0,0,0,0,0,0,0,0,0,0,0,0.1904,0.1903,0.1911,0.1912,0.1913,0.1977,0.1978,0.1979,0.2014,0.2014,0.2014,0.2014,0.2073,0.2075,0.2076,0,0,0,0,0,0,0,0,0,0,0,0,0,0.1931,0.1903,0.1911,0.1939,0.1942,0.1977,0.1978,0.1979,0.2014,0.2014,0.2014,0.2015,0.2072,0.2075,0.2077,0.2087,0,0,0.2083,0.2084,0,0,0,0,0,0,0,0,0.193,0.1931,0.1934,0.1937,0.194,0.1988,0.1997,0.2015,0.2014,0.1986,0.2014,0.2015,0.2044,0.2049,0.206,0.2089,0.2092,0.2084,0.2085,0.2086,0.2086,0,0,0,0,0,0,0,0.1927,0.1929,0.1937,0.1935,0.1939,0.1978,0.1981,0.2001,0.2013,0.1989,0.1991,0.1999,0.2046,0.2058,0.2062,0.2093,0.2084,0.2085,0.2087,0.2088,0.2117,0.2117,0,0,0,0,0,0,0.1915,0.1927,0.1935,0.1939,0.1936,0.1977,0.1981,0.1972,0.2013,0.202,0.1999,0.2001,0.2054,0.2059,0.2064,0.2083,0.2086,0.2088,0.2089,0.2118,0.2117,0.2116,0,0,0,0,0,0,0.1914,0.1915,0.1932,0.1936,0.1941,0.1977,0.1967,0.1973,0.1986,0.2021,0.2028,0.2005,0.2055,0.2061,0.2077,0.2085,0.2089,0.2091,0.2118,0.2117,0.2117,0.2117,0,0,0,0,0,0,0.1914,0.1913,0.1907,0.1934,0.194,0.1961,0.1967,0.1975,0.1991,0.1993,0.2028,0.2034,0.2055,0.2073,0.2079,0.2088,0.2093,0.2119,0.2118,0.2117,0.2118,0.2117,0.2116,0,0,0,0,0,0.1913,0.1907,0.1905,0.1907,0.1928,0.1962,0.1969,0.1995,0.1991,0.2005,0.2015,0.2033,0.2071,0.2075,0.2081,0.2092,0.2119,0.2118,0.2117,0.2119,0.2117,0.2116,0,0,0,0,0,0,0.1914,0.1911,0.191,0.1906,0.1933,0.1968,0.1988,0.1991,0.2011,0.2014,0.2031,0.2038,0.2055,0.2065,0.2069,0.2093,0.2096,0.2096,0.2095,0.2094,0.2093,0.2095,0.2094,0,0,0,0,0,0.1905,0.1894,0.1911,0.1914,0.1926,0.1951,0.1967,0.1984,0.2004,0.2013,0.2029,0.2043,0.2055,0.2067,0.2085,0.21,0.2111,0.2107,0.2106,0.2105,0.2109,0.2124,0.2125,0.2112,0.2112,0.2113,0,0,0.1911,0.1906,0.1904,0.1913,0.1937,0.1962,0.1963,0.1994,0.2008,0.2016,0.2037,0.2043,0.2057,0.2076,0.2084,0.2087,0.2113,0.2103,0.2103,0.2107,0.2123,0.2124,0.2125,0.2112,0.2112,0.2112,0,0,0.1928,0.1911,0.1915,0.1933,0.1962,0.1976,0.198,0.2009,0.2017,0.2031,0.2037,0.2042,0.2065,0.2077,0.2084,0.2082,0.2105,0.2086,0.2088,0.2102,0.2104,0.2105,0.212,0.2123,0.2086,0.2086,0.2086,0,0.1938,0.1934,0.193,0.1948,0.1966,0.1978,0.2005,0.2015,0.2041,0.2042,0.2039,0.2053,0.2065,0.208,0.2079,0.2083,0.2094,0.2096,0.2102,0.2104,0.2106,0.212,0.2123,0.2086,0.2086,0.2086,0.2086,0,0.1963,0.1965,0.1978,0.199,0.201,0.2037,0.205,0.206,0.2056,0.206,0.2065,0.2071,0.208,0.2079,0.2081,0.2095,0.2101,0.21,0.211,0.2107,0.2122,0.2126,0.2086,0.2086,0.2086,0.2086,0,0,0.1969,0.1988,0.1991,0.1995,0.2031,0.2042,0.2068,0.2084,0.2081,0.2091,0.209,0.2098,0.2091,0.2097,0.2097,0.2103,0.212,0.2106,0.2107,0.2129,0.2155,0.2257,0.2271,0.2124,0.2125,0.2125,0.2162,0,0.1994,0.2009,0.2025,0.205,0.2059,0.2081,0.2096,0.2109,0.2108,0.2108,0.2104,0.2107,0.2101,0.2101,0.2108,0.2119,0.2129,0.2111,0.2148,0.215,0.2248,0.2278,0.2336,0.2383,0.2165,0.2166,0.2166,0,0.2005,0.2008,0.2027,0.2047,0.2057,0.2074,0.2084,0.2103,0.2113,0.2118,0.2124,0.2121,0.2135,0.2122,0.2149,0.214,0.215,0.2153,0.2154,0.2254,0.2259,0.235,0.2397,0.2309,0.2171,0.2171,0.2171,0,0.1961,0.2005,0.2005,0.2015,0.2047,0.2057,0.2076,0.2094,0.2098,0.2121,0.2128,0.2144,0.2151,0.2166,0.2192,0.2169,0.2226,0.2194,0.2292,0.2299,0.2359,0.2372,0.2337,0.2213,0.2213,0.2213,0.2213,0,0.1947,0.1947,0.1978,0.1968,0.197,0.2017,0.2018,0.2042,0.2076,0.2097,0.2123,0.2154,0.2162,0.2197,0.2209,0.2289,0.2248,0.231,0.2325,0.2362,0.2374,0.231,0.2261,0.2214,0.2214,0.2213,0.2213,0,0.1874,0.1903,0.1892,0.1924,0.1936,0.1924,0.1973,0.1975,0.2033,0.2065,0.208,0.2152,0.2244,0.2266,0.2308,0.2326,0.2337,0.2409,0.2461,0.2484,0.2503,0.2453,0.2356,0.2275,0.2519,0.2522,0.2524,0,0.1835,0.1818,0.1825,0.1818,0.1827,0.1838,0.1851,0.1925,0.1954,0.2083,0.2102,0.2208,0.2319,0.244,0.2521,0.2598,0.2445,0.2647,0.2619,0.2535,0.2488,0.2324,0.2247,0.2683,0.2687,0.269,0.2692,0,0.1755,0.1746,0.1733,0.1723,0.1727,0.1743,0.1787,0.1812,0.1935,0.2013,0.2173,0.2286,0.2475,0.2623,0.2734,0.2778,0.2561,0.2712,0.2601,0.2614,0.2454,0.2374,0.2613,0.2718,0.2715,0.2713,0.2712,0.2711,0.1692,0.1657,0.1652,0.1648,0.165,0.1687,0.1717,0.1812,0.1915,0.2081,0.2201,0.2392,0.2621,0.284,0.2855,0.2904,0.2773,0.2847,0.2792,0.2628,0.2559,0.2875,0.3018,0.3017,0.3016,0.3015,0.3015,0,0.1648,0.1625,0.1597,0.1607,0.1614,0.1644,0.171,0.177,0.1928,0.2087,0.2267,0.2542,0.2736,0.2856,0.3035,0.2985,0.2795,0.2879,0.263,0.2546,0.2833,0.2853,0.2996,0.2996,0.2996,0.2996,0.2996,0.2996,0.1627,0.1597,0.1593,0.1608,0.1619,0.1654,0.1707,0.1802,0.1915,0.2121,0.2285,0.2434,0.2689,0.2944,0.2987,0.2931,0.2638,0.2613,0.2439,0.2643,0.2632,0.2622,0.2626,0.2719,0.2719,0.2095,0.2091,0.2088]},{"header":{"parameterUnit":"m.s-1","parameterCategory":2,"la1":30.2991,"la2":30.254,"lo1":-89.0895,"lo2":-89.0444,"dy":0.0017,"dx":0.0017,"nx":28,"ny":28,"refTime":"2023-10-08T09:00:00:Z","depth":"0","parameterNumber":3,"parameterNumberName":"V-component_of_CURRENTS"},"data":[0,0,0,0,0,0,0,0,0,0,0,0,0,0,0,0,0,0,0,0,0,0,0,0,0,0,0,0,0,0,0,0,0,0,0,0,0,0,0,0,0,0,0,0,0,0,0,0,0,0,0,0,0,0,0,0,0,0,-0.0239,-0.0241,0,-0.0441,-0.0443,-0.0446,-0.0541,-0.0541,-0.0541,-0.0541,-0.0723,-0.0728,-0.0732,0,0,0,0,0,0,0,0,0,0,0,0,0,-0.0083,-0.0085,-0.0239,-0.0241,-0.0244,-0.0441,-0.0443,-0.0446,-0.0541,-0.0541,-0.0541,-0.0541,-0.0721,-0.0727,-0.0733,0,0,0,0,0,0,0,0,0,0,0,0,0,-0.0204,-0.0085,-0.0238,-0.0316,-0.0325,-0.044,-0.0444,-0.0447,-0.0542,-0.0541,-0.0541,-0.0541,-0.0719,-0.0726,-0.0734,-0.0781,0,0,-0.0756,-0.0759,0,0,0,0,0,0,0,0,-0.0197,-0.0209,-0.0302,-0.0311,-0.0321,-0.0467,-0.0456,-0.0558,-0.0542,-0.0459,-0.0541,-0.0541,-0.0636,-0.065,-0.0688,-0.0789,-0.0797,-0.0757,-0.0761,-0.0764,-0.0766,0,0,0,0,0,0,0,-0.0188,-0.0202,-0.0318,-0.0304,-0.0316,-0.0391,-0.0407,-0.0476,-0.0544,-0.0466,-0.0473,-0.0497,-0.0641,-0.068,-0.0692,-0.08,-0.0757,-0.0763,-0.0768,-0.077,-0.0953,-0.0954,0,0,0,0,0,0,-0.0157,-0.0193,-0.0312,-0.0324,-0.0258,-0.0393,-0.0411,-0.0419,-0.0544,-0.0564,-0.0497,-0.0501,-0.0668,-0.0684,-0.0699,-0.0762,-0.0764,-0.0771,-0.0775,-0.0953,-0.0953,-0.0954,0,0,0,0,0,0,-0.0152,-0.0165,-0.0304,-0.0265,-0.0288,-0.0395,-0.0405,-0.0423,-0.0463,-0.0568,-0.0587,-0.0516,-0.0668,-0.0689,-0.0768,-0.0769,-0.0774,-0.0781,-0.0952,-0.0953,-0.0954,-0.0887,0,0,0,0,0,0,-0.0147,-0.0161,-0.0159,-0.0262,-0.0289,-0.037,-0.0406,-0.0427,-0.0478,-0.0484,-0.0591,-0.0608,-0.067,-0.0756,-0.0775,-0.078,-0.0787,-0.0952,-0.0953,-0.0953,-0.0889,-0.0886,-0.0883,0,0,0,0,0,-0.014,-0.014,-0.0157,-0.0172,-0.028,-0.0371,-0.0392,-0.0468,-0.0478,-0.0501,-0.0572,-0.0605,-0.0774,-0.0763,-0.0785,-0.0791,-0.0951,-0.0952,-0.0953,-0.089,-0.0886,-0.0883,0,0,0,0,0,0,-0.0084,-0.0153,-0.0174,-0.0196,-0.0274,-0.0387,-0.0415,-0.046,-0.0536,-0.0534,-0.0623,-0.0646,-0.0713,-0.0763,-0.0748,-0.0846,-0.0864,-0.0869,-0.0808,-0.0805,-0.0802,-0.0772,-0.0793,0,0,0,0,0,-0.0064,-0.0073,-0.0164,-0.0184,-0.0213,-0.0308,-0.0352,-0.0401,-0.0482,-0.0515,-0.059,-0.0664,-0.0736,-0.0777,-0.0847,-0.0907,-0.0931,-0.0922,-0.0919,-0.0916,-0.0907,-0.0951,-0.095,-0.0957,-0.0957,-0.0957,0,0,-0.0051,-0.0089,-0.0097,-0.0172,-0.0232,-0.0278,-0.0334,-0.0393,-0.0434,-0.0522,-0.059,-0.0658,-0.0749,-0.0817,-0.085,-0.0859,-0.0925,-0.0917,-0.0914,-0.0906,-0.0952,-0.0951,-0.095,-0.0958,-0.0958,-0.0958,0,0,-0.0031,-0.0056,-0.0059,-0.0113,-0.0192,-0.0253,-0.0262,-0.0365,-0.041,-0.0488,-0.0554,-0.0621,-0.0736,-0.0802,-0.0849,-0.087,-0.0905,-0.0888,-0.0855,-0.0898,-0.0898,-0.0897,-0.091,-0.0912,-0.0889,-0.0889,-0.0889,0,-0.0013,-0.0027,-0.008,-0.0104,-0.0146,-0.0231,-0.0258,-0.0321,-0.0438,-0.0475,-0.0495,-0.0657,-0.0727,-0.0813,-0.082,-0.0862,-0.0881,-0.086,-0.0892,-0.0892,-0.0893,-0.0907,-0.0909,-0.0886,-0.0886,-0.0886,-0.0887,0,0.0001,-0.0018,-0.0027,-0.0074,-0.0125,-0.0165,-0.0251,-0.03,-0.0354,-0.0423,-0.0512,-0.0614,-0.0708,-0.0739,-0.079,-0.0837,-0.0845,-0.0878,-0.0893,-0.0888,-0.0903,-0.0907,-0.0881,-0.0882,-0.0883,-0.0884,0,0,0.0058,-0.0002,-0.0005,-0.0025,-0.0109,-0.0154,-0.0206,-0.0291,-0.0325,-0.0421,-0.0475,-0.0592,-0.0639,-0.0694,-0.0765,-0.0802,-0.0821,-0.0834,-0.0838,-0.0831,-0.0891,-0.0834,-0.0833,-0.0858,-0.0859,-0.086,-0.0892,0,0.0081,0.0061,0.0017,-0.0019,-0.0043,-0.0125,-0.0172,-0.0253,-0.0328,-0.0399,-0.0495,-0.0572,-0.0626,-0.0666,-0.0714,-0.0805,-0.083,-0.0807,-0.091,-0.0913,-0.0851,-0.0835,-0.0728,-0.0743,-0.0896,-0.0896,-0.0897,0,0.0116,0.009,0.0075,0.0007,-0.001,-0.0042,-0.0124,-0.018,-0.029,-0.0346,-0.043,-0.0511,-0.0599,-0.0633,-0.076,-0.0742,-0.0801,-0.0857,-0.0861,-0.0832,-0.0863,-0.0779,-0.0744,-0.0912,-0.0903,-0.0902,-0.0902,0,0.0188,0.0132,0.0126,0.0101,0.0014,-0.0008,-0.0057,-0.0157,-0.0203,-0.0305,-0.0335,-0.0465,-0.0514,-0.062,-0.0732,-0.0751,-0.0846,-0.0896,-0.0894,-0.089,-0.083,-0.082,-0.0956,-0.0958,-0.0958,-0.0958,-0.0958,0,0.0234,0.0222,0.0162,0.0153,0.0129,0.0054,0.0019,-0.005,-0.0135,-0.0158,-0.0293,-0.0314,-0.0508,-0.0592,-0.0706,-0.0793,-0.0828,-0.0872,-0.0894,-0.0802,-0.0789,-0.0959,-0.1053,-0.0959,-0.0959,-0.0959,-0.0959,0,0.0306,0.0274,0.0254,0.0184,0.0165,0.015,0.0073,0.0042,-0.0031,-0.0058,-0.008,-0.0209,-0.0293,-0.0469,-0.063,-0.0733,-0.09,-0.0861,-0.0722,-0.0726,-0.0883,-0.0974,-0.1098,-0.1163,-0.0875,-0.0873,-0.0872,0,0.0336,0.034,0.0293,0.0284,0.0253,0.0218,0.0191,0.0102,0.009,0.0036,0.0046,-0.0047,-0.006,-0.0281,-0.0478,-0.0654,-0.0825,-0.0696,-0.0719,-0.0862,-0.0982,-0.1058,-0.111,-0.0614,-0.0611,-0.0609,-0.0607,0,0.0373,0.037,0.0352,0.0349,0.0331,0.0311,0.0288,0.0301,0.0239,0.0275,0.0334,0.033,0.0126,0.0009,-0.0269,-0.0409,-0.0773,-0.0649,-0.0848,-0.0818,-0.086,-0.094,-0.0619,-0.0584,-0.0586,-0.0588,-0.0589,-0.059,0.0398,0.0404,0.0399,0.0403,0.0397,0.0428,0.0472,0.0502,0.0574,0.0695,0.0638,0.0746,0.0457,0.0116,-0.0142,-0.0549,-0.0608,-0.0661,-0.0766,-0.0836,-0.0879,-0.0485,-0.0449,-0.045,-0.0451,-0.0452,-0.0453,0,0.0413,0.0432,0.0443,0.0468,0.0514,0.0492,0.0555,0.0657,0.0853,0.098,0.1116,0.1097,0.0758,0.031,-0.0248,-0.0595,-0.0761,-0.0813,-0.0924,-0.0981,-0.0664,-0.0634,-0.0573,-0.0573,-0.0573,-0.0573,-0.0573,-0.0572,0.042,0.0449,0.0471,0.0574,0.0615,0.0723,0.0801,0.099,0.1135,0.1419,0.1556,0.1589,0.1237,0.0153,-0.0639,-0.0841,-0.1136,-0.1143,-0.1362,-0.1177,-0.1172,-0.1168,-0.1166,-0.1218,-0.1218,-0.1602,-0.1606,-0.1609]}],[{"header":{"parameterUnit":"m.s-1","parameterCategory":2,"la1":30.2991,"la2":30.254,"lo1":-89.0895,"lo2":-89.0444,"dy":0.0017,"dx":0.0017,"nx":28,"ny":28,"refTime":"2023-10-08T09:00:00:Z","depth":"2","parameterNumber":2,"parameterNumberName":"U-component_of_CURRENTS"},"data":[0,0,0,0,0,0,0,0,0,0,0,0,0,0,0,0,0,0,0,0,0,0,0,0,0,0,0,0,0,0,0,0,0,0,0,0,0,0,0,0,0,0,0,0,0,0,0,0,0,0,0,0,0,0,0,0,0,0,0.1951,0.1952,0,0.2076,0.2079,0.2081,0.2172,0.2172,0.2172,0.2172,0.2078,0.2076,0.2073,0,0,0,0,0,0,0,0,0,0,0,0,0,0.1875,0.1876,0.1951,0.1952,0.1953,0.2076,0.2079,0.2081,0.2172,0.2172,0.2172,0.2172,0.2079,0.2076,0.2073,0,0,0,0,0,0,0,0,0,0,0,0,0,0.1953,0.1877,0.1951,0.2007,0.2013,0.2076,0.2079,0.2082,0.2172,0.2172,0.2172,0.2172,0.208,0.2077,0.2073,0.2049,0,0,0.2061,0.206,0,0,0,0,0,0,0,0,0.1948,0.1956,0.1998,0.2003,0.2009,0.2101,0.2017,0.2057,0.2172,0.212,0.2172,0.2172,0.206,0.2058,0.2097,0.2045,0.2041,0.2061,0.2059,0.2057,0.2056,0,0,0,0,0,0,0,0.1943,0.1952,0.2009,0.1998,0.2006,0.2054,0.2065,0.2027,0.2091,0.2125,0.213,0.213,0.2063,0.2101,0.2094,0.2039,0.2061,0.2058,0.2055,0.2054,0.2038,0.204,0,0,0,0,0,0,0.1906,0.1946,0.2005,0.2012,0.1969,0.2054,0.2067,0.2079,0.2096,0.2099,0.213,0.2134,0.2107,0.2099,0.2091,0.2107,0.2057,0.2054,0.2051,0.2036,0.2039,0.2041,0,0,0,0,0,0,0.1904,0.1911,0.2,0.1975,0.1989,0.2054,0.2067,0.2081,0.2139,0.2101,0.2101,0.2175,0.2107,0.2096,0.2095,0.2101,0.2052,0.2048,0.2034,0.2037,0.204,0.2108,0,0,0,0,0,0,0.1902,0.191,0.1929,0.1973,0.1988,0.2054,0.2067,0.2083,0.2134,0.2141,0.2138,0.213,0.2106,0.2101,0.2091,0.2095,0.2045,0.2032,0.2035,0.2039,0.2103,0.2113,0.2121,0,0,0,0,0,0.1899,0.1919,0.193,0.1938,0.2006,0.2054,0.2069,0.212,0.2136,0.2173,0.2178,0.2131,0.2116,0.21,0.2088,0.209,0.203,0.2034,0.2038,0.2099,0.2111,0.212,0,0,0,0,0,0,0.19,0.193,0.1944,0.1974,0.2015,0.2066,0.2101,0.2132,0.2175,0.218,0.2151,0.2143,0.2147,0.2116,0.2099,0.2101,0.2065,0.2067,0.2116,0.2126,0.2135,0.2121,0.2042,0,0,0,0,0,0.1904,0.1932,0.1962,0.1993,0.2005,0.2058,0.209,0.2126,0.2154,0.2178,0.2176,0.2167,0.2154,0.2139,0.2129,0.2118,0.2094,0.2116,0.2125,0.2132,0.2116,0.2114,0.212,0.2054,0.2054,0.2054,0,0,0.191,0.1933,0.1949,0.1996,0.203,0.2076,0.2081,0.2134,0.2181,0.2149,0.2211,0.2196,0.2162,0.2171,0.2167,0.2142,0.2145,0.2137,0.2143,0.2123,0.2118,0.2124,0.213,0.2057,0.2057,0.2056,0,0,0.193,0.1956,0.1982,0.2025,0.2074,0.2106,0.2121,0.2181,0.2215,0.2257,0.2251,0.225,0.2237,0.2225,0.2208,0.2253,0.2198,0.2247,0.2263,0.2262,0.2267,0.227,0.227,0.2273,0.2242,0.2242,0.2242,0,0.194,0.1973,0.2001,0.2046,0.2081,0.2118,0.2162,0.2207,0.2269,0.2275,0.2282,0.2283,0.2262,0.2249,0.2275,0.2268,0.2257,0.2223,0.2271,0.2274,0.2276,0.2275,0.2277,0.2246,0.2246,0.2245,0.2245,0,0.1976,0.2018,0.2037,0.2103,0.2156,0.2196,0.2246,0.2293,0.2321,0.2346,0.2355,0.2347,0.2333,0.2336,0.2313,0.2317,0.2302,0.2289,0.2239,0.2287,0.2283,0.2284,0.2252,0.225,0.2249,0.2248,0,0,0.1947,0.2038,0.2047,0.208,0.2185,0.2217,0.2293,0.2336,0.2338,0.2401,0.24,0.241,0.239,0.2371,0.2348,0.2344,0.2368,0.2322,0.232,0.2311,0.2365,0.2435,0.2442,0.2361,0.2361,0.2361,0.2362,0,0.1959,0.2029,0.2084,0.2163,0.2201,0.2268,0.2312,0.2368,0.2391,0.2401,0.2403,0.239,0.2407,0.2377,0.2391,0.2364,0.2371,0.2369,0.2327,0.2326,0.2374,0.2446,0.2219,0.2208,0.2363,0.2363,0.2363,0,0.1962,0.2016,0.2079,0.2158,0.2173,0.222,0.2268,0.2319,0.2349,0.2356,0.2373,0.237,0.2384,0.2379,0.2393,0.239,0.2383,0.2372,0.2372,0.2406,0.2398,0.2182,0.2204,0.2364,0.2364,0.2364,0.2364,0,0.1899,0.2002,0.2038,0.208,0.2179,0.2196,0.224,0.2288,0.2302,0.232,0.2316,0.2342,0.2333,0.2357,0.2383,0.2376,0.2389,0.2375,0.2435,0.2439,0.2221,0.2208,0.2378,0.2378,0.2378,0.2378,0.2378,0,0.1867,0.1908,0.1997,0.202,0.2042,0.2137,0.2135,0.2174,0.2207,0.2216,0.2272,0.2286,0.2323,0.2354,0.2378,0.2434,0.2399,0.2449,0.2451,0.2246,0.2236,0.234,0.2336,0.2378,0.2378,0.2378,0.2378,0,0.1795,0.1854,0.1908,0.1991,0.2009,0.2027,0.2087,0.2078,0.2122,0.2142,0.2153,0.2231,0.2314,0.2365,0.2391,0.2421,0.246,0.2477,0.225,0.2229,0.2505,0.2505,0.2547,0.255,0.2552,0.2554,0.2555,0,0.176,0.1779,0.1865,0.1876,0.1906,0.1943,0.1953,0.2022,0.2038,0.2127,0.2135,0.2225,0.2308,0.2409,0.2428,0.249,0.2538,0.2344,0.2314,0.2529,0.2526,0.2522,0.2518,0.2036,0.2033,0.2031,0.2029,0,0.1705,0.1731,0.1763,0.1791,0.1806,0.1837,0.1873,0.1882,0.1975,0.2008,0.211,0.2188,0.2294,0.2289,0.2373,0.2381,0.233,0.231,0.2545,0.2075,0.206,0.2054,0.2064,0.2008,0.201,0.2012,0.2013,0.2014,0.1652,0.1659,0.1687,0.1713,0.1724,0.1743,0.1738,0.1785,0.1827,0.1878,0.2021,0.2077,0.212,0.2181,0.215,0.2134,0.2302,0.2217,0.2217,0.222,0.2208,0.2204,0.2174,0.2177,0.2179,0.2181,0.2183,0,0.1598,0.161,0.1615,0.1645,0.1616,0.167,0.1687,0.167,0.1695,0.1782,0.1852,0.1772,0.18,0.188,0.1809,0.1855,0.1735,0.1821,0.1626,0.1651,0.1672,0.1624,0.1438,0.1435,0.1433,0.1431,0,0,0.1567,0.1556,0.1574,0.1536,0.1549,0.1516,0.1513,0.1501,0.1528,0.1532,0.156,0.1691,0.1824,0.1588,0.1575,0.1504,0.1551,0.1447,0.2046,0.1839,0.1856,0.1912,0.1871,0,0,0,0,0]},{"header":{"parameterUnit":"m.s-1","parameterCategory":2,"la1":30.2991,"la2":30.254,"lo1":-89.0895,"lo2":-89.0444,"dy":0.0017,"dx":0.0017,"nx":28,"ny":28,"refTime":"2023-10-08T09:00:00:Z","depth":"2","parameterNumber":3,"parameterNumberName":"V-component_of_CURRENTS"},"data":[0,0,0,0,0,0,0,0,0,0,0,0,0,0,0,0,0,0,0,0,0,0,0,0,0,0,0,0,0,0,0,0,0,0,0,0,0,0,0,0,0,0,0,0,0,0,0,0,0,0,0,0,0,0,0,0,0,0,0.0188,0.0188,0,0.0111,0.0109,0.0107,-0.0021,-0.0023,-0.0024,-0.0025,-0.0175,-0.0178,-0.0181,0,0,0,0,0,0,0,0,0,0,0,0,0,0.013,0.0131,0.0188,0.0188,0.0188,0.0112,0.0109,0.0107,-0.0021,-0.0023,-0.0024,-0.0025,-0.0174,-0.0178,-0.0181,0,0,0,0,0,0,0,0,0,0,0,0,0,0.0102,0.0132,0.0188,0.0125,0.012,0.0112,0.0109,0.0106,-0.0021,-0.0023,-0.0024,-0.0026,-0.0173,-0.0178,-0.0182,-0.0176,0,0,-0.0196,-0.0197,0,0,0,0,0,0,0,0,0.0104,0.0102,0.0134,0.013,0.0124,0.0065,0.0034,0.0013,-0.0021,0.0018,-0.0025,-0.0027,-0.0091,-0.0103,-0.0132,-0.0183,-0.0189,-0.0196,-0.0199,-0.0201,-0.0202,0,0,0,0,0,0,0,0.0106,0.0104,0.0143,0.0135,0.0129,0.0071,0.0064,0.0028,-0.0039,0.0014,0.0008,0.0022,-0.0097,-0.0128,-0.0137,-0.0191,-0.0196,-0.02,-0.0202,-0.0204,-0.0337,-0.0338,0,0,0,0,0,0,0.015,0.0107,0.0146,0.0143,0.0125,0.0075,0.0066,0.0074,-0.0037,-0.0051,0.0024,0.0017,-0.0119,-0.0131,-0.0142,-0.0216,-0.02,-0.0205,-0.0207,-0.0336,-0.0337,-0.0338,0,0,0,0,0,0,0.0149,0.0154,0.0149,0.0134,0.0131,0.0079,0.0088,0.0074,0.0023,-0.0026,-0.0045,-0.0013,-0.0121,-0.0136,-0.0206,-0.022,-0.0207,-0.0211,-0.0335,-0.0337,-0.0338,-0.0315,0,0,0,0,0,0,0.0148,0.0154,0.0149,0.0137,0.0134,0.0142,0.0091,0.0074,0.0043,0.0031,-0.0063,-0.0078,-0.0124,-0.0199,-0.021,-0.0226,-0.0214,-0.0334,-0.0336,-0.0337,-0.0315,-0.0316,-0.0316,0,0,0,0,0,0.0146,0.0157,0.0149,0.0153,0.0138,0.0145,0.0135,0.0083,0.0043,0.0026,-0.0054,-0.0076,-0.0217,-0.0204,-0.0216,-0.0234,-0.0333,-0.0335,-0.0337,-0.0315,-0.0316,-0.0316,0,0,0,0,0,0,0.0123,0.0146,0.0137,0.0151,0.0151,0.0128,0.0113,0.0081,0.0004,-0.0026,-0.0089,-0.0109,-0.0174,-0.0205,-0.0188,-0.0277,-0.0277,-0.0282,-0.0256,-0.0257,-0.0258,-0.0233,-0.0218,0,0,0,0,0,0.0127,0.013,0.0153,0.0155,0.0167,0.0135,0.0123,0.009,0.0043,0.0005,-0.0063,-0.0135,-0.0186,-0.0224,-0.0275,-0.0321,-0.0338,-0.0341,-0.0341,-0.0341,-0.0331,-0.0375,-0.0378,-0.0345,-0.0345,-0.0345,0,0,0.0117,0.0131,0.0129,0.0149,0.014,0.0144,0.0118,0.0103,0.0075,0.0004,-0.0083,-0.0138,-0.0199,-0.0261,-0.0291,-0.0293,-0.036,-0.0344,-0.0344,-0.0333,-0.0377,-0.038,-0.0383,-0.0346,-0.0346,-0.0346,0,0,0.0123,0.0121,0.0138,0.0139,0.0146,0.013,0.0132,0.01,0.0056,-0.0009,-0.0072,-0.0136,-0.0224,-0.0273,-0.0304,-0.0334,-0.0359,-0.0353,-0.0342,-0.0385,-0.0388,-0.039,-0.0412,-0.0417,-0.0357,-0.0357,-0.0357,0,0.0112,0.014,0.014,0.0158,0.0159,0.013,0.0143,0.0101,0.0031,0.0006,-0.0036,-0.017,-0.0227,-0.0283,-0.0307,-0.0334,-0.0357,-0.0333,-0.0384,-0.0387,-0.039,-0.0412,-0.0418,-0.0357,-0.0357,-0.0357,-0.0357,0,0.014,0.015,0.0163,0.0172,0.0163,0.0168,0.0145,0.0106,0.0049,0.0005,-0.0072,-0.016,-0.0233,-0.0264,-0.0301,-0.0348,-0.0357,-0.0375,-0.0376,-0.0392,-0.0415,-0.0421,-0.0355,-0.0356,-0.0356,-0.0356,0,0,0.0164,0.0183,0.0186,0.0193,0.0172,0.0177,0.0139,0.0121,0.0102,0.0002,-0.0031,-0.0143,-0.0193,-0.0231,-0.0288,-0.0333,-0.0381,-0.0365,-0.0368,-0.0375,-0.0466,-0.0393,-0.0393,-0.0413,-0.0414,-0.0415,-0.0472,0,0.0194,0.0229,0.0226,0.0232,0.0249,0.0214,0.0191,0.0147,0.0095,0.0046,-0.0044,-0.0108,-0.0179,-0.0218,-0.0278,-0.0353,-0.0397,-0.0363,-0.0459,-0.0461,-0.0386,-0.0397,-0.0393,-0.0436,-0.0477,-0.0478,-0.0479,0,0.0241,0.0251,0.0274,0.0278,0.0287,0.0273,0.0248,0.0223,0.0155,0.0111,0.0028,-0.0043,-0.0138,-0.0189,-0.0331,-0.0309,-0.0385,-0.0441,-0.0445,-0.0385,-0.0399,-0.043,-0.0446,-0.0489,-0.0488,-0.0488,-0.0487,0,0.0268,0.0295,0.0311,0.0306,0.0296,0.0296,0.0285,0.0234,0.0229,0.0147,0.0127,0.0001,-0.0065,-0.0181,-0.0315,-0.0331,-0.0447,-0.0483,-0.0485,-0.048,-0.0497,-0.0491,-0.0569,-0.0569,-0.0569,-0.0569,-0.0569,0,0.0313,0.0324,0.0325,0.0328,0.0352,0.0322,0.0339,0.0312,0.0278,0.0287,0.0156,0.0143,-0.0069,-0.0162,-0.0287,-0.0392,-0.0433,-0.0473,-0.0489,-0.0487,-0.048,-0.0543,-0.0539,-0.0571,-0.057,-0.057,-0.057,0,0.0336,0.034,0.0359,0.036,0.0367,0.0373,0.0394,0.0408,0.036,0.0369,0.0345,0.0229,0.0114,-0.0068,-0.0246,-0.0338,-0.0451,-0.0476,-0.0444,-0.0454,-0.0465,-0.046,-0.0489,-0.0487,-0.0485,-0.0483,-0.0482,0,0.035,0.0359,0.0383,0.0409,0.0413,0.043,0.0457,0.044,0.0468,0.0449,0.0468,0.0354,0.0334,0.0103,-0.0127,-0.0319,-0.0381,-0.0416,-0.0438,-0.0443,-0.0457,-0.0454,-0.0452,-0.0468,-0.0466,-0.0465,-0.0464,0,0.0363,0.0368,0.039,0.0449,0.0486,0.0535,0.0576,0.0624,0.0622,0.0662,0.0714,0.0708,0.0466,0.0263,-0.0022,-0.015,-0.0386,-0.0394,-0.0437,-0.046,-0.042,-0.0434,-0.0433,-0.0455,-0.0456,-0.0457,-0.0457,-0.0458,0.0367,0.0394,0.0435,0.0494,0.0548,0.0632,0.0706,0.0773,0.0869,0.0924,0.0903,0.0884,0.0608,0.0259,0.0014,-0.0273,-0.0266,-0.0372,-0.0378,-0.0384,-0.0343,-0.0299,-0.0304,-0.0304,-0.0304,-0.0304,-0.0304,0,0.0371,0.0416,0.0481,0.0564,0.0647,0.0659,0.0783,0.0865,0.1019,0.1053,0.1097,0.0873,0.0643,0.0326,-0.0082,-0.028,-0.034,-0.0349,-0.0412,-0.0418,-0.0424,-0.0389,-0.0361,-0.0362,-0.0362,-0.0363,0,0,0.0379,0.0439,0.0485,0.0626,0.0694,0.0816,0.0904,0.1028,0.1096,0.1175,0.1149,0.1042,0.0714,0.04,0.008,-0.0147,-0.0224,-0.0178,-0.0109,-0.0151,-0.0154,-0.0411,-0.0358,0,0,0,0,0]}],[{"header":{"parameterUnit":"m.s-1","parameterCategory":2,"la1":30.2991,"la2":30.254,"lo1":-89.0895,"lo2":-89.0444,"dy":0.0017,"dx":0.0017,"nx":28,"ny":28,"refTime":"2023-10-08T09:00:00:Z","depth":"4","parameterNumber":2,"parameterNumberName":"U-component_of_CURRENTS"},"data":[0,0,0,0,0,0,0,0,0,0,0,0,0,0,0,0,0,0,0,0,0,0,0,0,0,0,0,0,0,0,0,0,0,0,0,0,0,0,0,0,0,0,0,0,0,0,0,0,0,0,0,0,0,0,0,0,0,0,0.0965,0.0964,0,0.0921,0.092,0.0919,0.0886,0.0886,0.0886,0.0886,0.0838,0.0837,0.0835,0,0,0,0,0,0,0,0,0,0,0,0,0,0.0922,0.0923,0.0965,0.0964,0.0964,0.0921,0.092,0.0919,0.0886,0.0886,0.0886,0.0886,0.0839,0.0837,0.0835,0,0,0,0,0,0,0,0,0,0,0,0,0,0.0912,0.0924,0.0965,0.0946,0.0944,0.0921,0.092,0.0919,0.0885,0.0886,0.0886,0.0886,0.0839,0.0837,0.0835,0.0819,0,0,0.0829,0.0828,0,0,0,0,0,0,0,0,0.0912,0.0913,0.0949,0.0947,0.0945,0.0913,0.0888,0.0887,0.0885,0.0903,0.0886,0.0886,0.0866,0.0861,0.0846,0.0816,0.0814,0.0828,0.0827,0.0826,0.0826,0,0,0,0,0,0,0,0.0913,0.0914,0.0942,0.0949,0.0947,0.0907,0.0906,0.0887,0.088,0.0901,0.09,0.0903,0.0864,0.0848,0.0845,0.0814,0.0829,0.0827,0.0825,0.0825,0.0873,0.0875,0,0,0,0,0,0,0.0933,0.0915,0.0944,0.0942,0.0934,0.0908,0.0907,0.0919,0.088,0.0876,0.0902,0.0901,0.0852,0.0847,0.0843,0.0866,0.0826,0.0824,0.0823,0.087,0.0873,0.0876,0,0,0,0,0,0,0.0933,0.0937,0.0946,0.093,0.0929,0.091,0.0923,0.0918,0.0926,0.0882,0.0877,0.0918,0.0852,0.0846,0.0852,0.0862,0.0823,0.0822,0.0867,0.0871,0.0875,0.0882,0,0,0,0,0,0,0.0932,0.0937,0.0957,0.0932,0.0931,0.0942,0.0924,0.0918,0.0928,0.0927,0.0894,0.0888,0.0851,0.0856,0.085,0.0858,0.082,0.0864,0.0869,0.0874,0.0879,0.0886,0.0892,0,0,0,0,0,0.0931,0.0953,0.0959,0.0962,0.0959,0.0943,0.0939,0.0921,0.0929,0.0929,0.0922,0.089,0.0883,0.0855,0.0849,0.0856,0.0862,0.0868,0.0873,0.0876,0.0885,0.0892,0,0,0,0,0,0,0.0933,0.0951,0.0957,0.0982,0.0972,0.094,0.0946,0.0941,0.0934,0.0944,0.0906,0.09,0.0917,0.09,0.0871,0.0895,0.0874,0.0878,0.0879,0.0886,0.0893,0.0976,0.0818,0,0,0,0,0,0.0949,0.0979,0.0974,0.0993,0.0997,0.098,0.0978,0.0969,0.0958,0.0956,0.0944,0.094,0.0931,0.092,0.0919,0.0914,0.0935,0.0927,0.0933,0.0939,0.1008,0.1007,0.1019,0.0895,0.0895,0.0895,0,0,0.0952,0.097,0.0984,0.0998,0.0992,0.0989,0.0978,0.0985,0.097,0.0953,0.0955,0.0967,0.0944,0.0945,0.0951,0.0928,0.0987,0.0946,0.0949,0.1018,0.1014,0.1026,0.1037,0.0899,0.0898,0.0897,0,0,0.0964,0.0996,0.1019,0.1018,0.1028,0.1015,0.1028,0.1023,0.101,0.1019,0.1009,0.1063,0.1022,0.103,0.1018,0.1074,0.1032,0.1047,0.1122,0.1117,0.1127,0.1136,0.1173,0.1186,0.1033,0.1033,0.1033,0,0.0964,0.0996,0.1017,0.103,0.1029,0.1034,0.1034,0.1016,0.1015,0.1034,0.1031,0.1093,0.1079,0.1099,0.1123,0.109,0.108,0.1072,0.1122,0.1132,0.114,0.1177,0.119,0.1034,0.1034,0.1034,0.1034,0,0.098,0.1007,0.102,0.1042,0.1042,0.1048,0.1032,0.1055,0.1069,0.1074,0.1138,0.1154,0.1207,0.1193,0.1169,0.1226,0.1197,0.1131,0.109,0.1153,0.1188,0.1202,0.1036,0.1035,0.1035,0.1035,0,0,0.0961,0.1019,0.1024,0.1038,0.1051,0.1049,0.1055,0.1069,0.11,0.1143,0.1191,0.1245,0.1313,0.1317,0.1303,0.1318,0.1372,0.1255,0.1254,0.1278,0.1376,0.1256,0.1259,0.1266,0.1269,0.1271,0.1372,0,0.0959,0.0992,0.1019,0.1033,0.104,0.1064,0.1063,0.1088,0.1119,0.1169,0.1237,0.1285,0.132,0.1356,0.1389,0.1371,0.141,0.1354,0.1332,0.1335,0.1204,0.1271,0.1279,0.1382,0.1385,0.1388,0.1389,0,0.0954,0.0978,0.0999,0.1038,0.1045,0.1059,0.1106,0.111,0.1182,0.1216,0.1329,0.1361,0.1464,0.1444,0.1532,0.1473,0.1472,0.1461,0.146,0.1373,0.124,0.1313,0.1414,0.1412,0.141,0.1409,0.1407,0,0.0918,0.0962,0.0983,0.0992,0.1033,0.1063,0.1093,0.1153,0.117,0.1269,0.1327,0.1431,0.1501,0.1522,0.1561,0.1525,0.1613,0.1537,0.1455,0.1447,0.1517,0.1507,0.1617,0.1617,0.1617,0.1617,0.1616,0,0.0895,0.0913,0.098,0.099,0.1017,0.1057,0.1104,0.1157,0.1231,0.1268,0.1371,0.1424,0.1517,0.1567,0.1576,0.1577,0.1634,0.1528,0.1471,0.1519,0.1508,0.1526,0.1514,0.162,0.162,0.1619,0.1618,0,0.0849,0.0897,0.092,0.0981,0.1004,0.1027,0.1098,0.1131,0.1226,0.1281,0.1317,0.1442,0.1511,0.1584,0.1625,0.1598,0.159,0.1569,0.1676,0.1613,0.1434,0.1422,0.1507,0.1504,0.1501,0.1499,0.1497,0,0.0826,0.084,0.0904,0.092,0.0954,0.1001,0.1027,0.1116,0.1148,0.1269,0.1285,0.1401,0.1467,0.1486,0.1542,0.1573,0.1546,0.1559,0.1492,0.1491,0.1427,0.1419,0.1411,0.1493,0.1492,0.1491,0.1491,0,0.0774,0.0811,0.0837,0.0868,0.0902,0.0924,0.0979,0.0994,0.1088,0.1181,0.1233,0.1281,0.1361,0.1418,0.1463,0.1465,0.1552,0.153,0.1535,0.1473,0.1474,0.1411,0.1406,0.1481,0.1482,0.1483,0.1484,0,0.0735,0.0739,0.0784,0.0803,0.0839,0.0843,0.0877,0.0919,0.0964,0.1101,0.1105,0.1225,0.1331,0.1361,0.1379,0.1396,0.1377,0.1339,0.1354,0.1366,0.1267,0.1245,0.1175,0,0,0,0,0,0.0688,0.0696,0.0712,0.0729,0.0761,0.0785,0.0839,0.0876,0.0967,0.0974,0.104,0.1096,0.116,0.1225,0.1216,0.1308,0.1376,0.1291,0.1337,0.1428,0.1439,0.1333,0,0,0,0,0,0,0.0658,0.0682,0.069,0.0668,0.0671,0.0692,0.0727,0.0783,0.08,0.0904,0.0953,0.1032,0.1118,0.116,0.1199,0.1215,0.1222,0.1362,0.136,0.1421,0.1431,0.144,0.1336,0,0,0,0,0]},{"header":{"parameterUnit":"m.s-1","parameterCategory":2,"la1":30.2991,"la2":30.254,"lo1":-89.0895,"lo2":-89.0444,"dy":0.0017,"dx":0.0017,"nx":28,"ny":28,"refTime":"2023-10-08T09:00:00:Z","depth":"4","parameterNumber":3,"parameterNumberName":"V-component_of_CURRENTS"},"data":[0,0,0,0,0,0,0,0,0,0,0,0,0,0,0,0,0,0,0,0,0,0,0,0,0,0,0,0,0,0,0,0,0,0,0,0,0,0,0,0,0,0,0,0,0,0,0,0,0,0,0,0,0,0,0,0,0,0,0.0326,0.0326,0,0.0372,0.0372,0.0373,0.0411,0.0411,0.0411,0.0411,0.0419,0.0419,0.0419,0,0,0,0,0,0,0,0,0,0,0,0,0,0.0301,0.0302,0.0326,0.0326,0.0327,0.0372,0.0372,0.0373,0.0411,0.0411,0.0411,0.0411,0.0419,0.0419,0.0419,0,0,0,0,0,0,0,0,0,0,0,0,0,0.0328,0.0302,0.0326,0.035,0.0352,0.0371,0.0372,0.0373,0.0411,0.0411,0.0411,0.0412,0.0419,0.0419,0.0419,0.0412,0,0,0.0419,0.0419,0,0,0,0,0,0,0,0,0.0326,0.0329,0.0346,0.0348,0.0351,0.0384,0.0367,0.0384,0.0411,0.039,0.0411,0.0412,0.0402,0.0404,0.0415,0.0412,0.0413,0.0419,0.0419,0.0419,0.0419,0,0,0,0,0,0,0,0.0324,0.0327,0.0346,0.0346,0.0349,0.0368,0.0372,0.037,0.0394,0.0392,0.0394,0.0397,0.0404,0.0415,0.0415,0.0413,0.0419,0.0419,0.0419,0.0419,0.0422,0.0422,0,0,0,0,0,0,0.0313,0.0325,0.0344,0.0347,0.0337,0.0368,0.0373,0.0375,0.0395,0.0399,0.0396,0.0398,0.0415,0.0415,0.0415,0.0441,0.0419,0.0419,0.0419,0.0422,0.0422,0.0422,0,0,0,0,0,0,0.0312,0.0314,0.0343,0.0336,0.0341,0.0368,0.037,0.0375,0.0397,0.0399,0.0402,0.0413,0.0415,0.0415,0.043,0.044,0.0419,0.0419,0.0422,0.0422,0.0422,0.0469,0,0,0,0,0,0,0.0311,0.0314,0.0317,0.0335,0.034,0.0367,0.0369,0.0376,0.0396,0.04,0.0414,0.0415,0.0415,0.043,0.043,0.0439,0.0419,0.0422,0.0422,0.0422,0.0468,0.0471,0.0474,0,0,0,0,0,0.031,0.0317,0.0317,0.032,0.0343,0.0368,0.0373,0.0395,0.0397,0.0414,0.0423,0.0415,0.043,0.0431,0.043,0.044,0.0422,0.0422,0.0422,0.0466,0.0471,0.0474,0,0,0,0,0,0,0.0317,0.0322,0.0323,0.0333,0.0352,0.0374,0.039,0.0399,0.042,0.0423,0.0423,0.0425,0.0439,0.0429,0.0429,0.0438,0.0421,0.0422,0.0455,0.0459,0.0462,0.0476,0.0419,0,0,0,0,0,0.0315,0.0319,0.0332,0.0342,0.035,0.0369,0.0383,0.0397,0.0414,0.0425,0.0435,0.0437,0.0438,0.0442,0.0443,0.0451,0.0423,0.0453,0.0456,0.0459,0.0468,0.0418,0.0417,0.0423,0.0423,0.0423,0,0,0.0321,0.0324,0.0327,0.0343,0.0359,0.0384,0.038,0.0405,0.0426,0.0419,0.0453,0.0452,0.0442,0.0456,0.046,0.0452,0.0444,0.0459,0.0462,0.047,0.0418,0.0417,0.0417,0.0423,0.0423,0.0423,0,0,0.0336,0.0336,0.0346,0.0364,0.0385,0.04,0.0408,0.0435,0.0447,0.0475,0.0469,0.0478,0.0487,0.0485,0.0481,0.0499,0.0463,0.0492,0.0522,0.0473,0.0472,0.0471,0.0443,0.0439,0.0493,0.0493,0.0493,0,0.0345,0.0357,0.0357,0.0377,0.0398,0.0408,0.0437,0.0449,0.048,0.0492,0.0492,0.0506,0.0502,0.0506,0.0519,0.0508,0.0476,0.0512,0.0477,0.0476,0.0474,0.0445,0.044,0.0496,0.0495,0.0495,0.0495,0,0.0367,0.0384,0.0396,0.0421,0.0445,0.0472,0.0489,0.0513,0.0527,0.0541,0.0556,0.055,0.0558,0.0552,0.0548,0.0533,0.0515,0.0487,0.047,0.0476,0.0445,0.0439,0.0499,0.0498,0.0497,0.0497,0,0,0.0371,0.0404,0.041,0.0435,0.0472,0.0498,0.0528,0.0562,0.0582,0.0599,0.0615,0.0623,0.0617,0.0611,0.0592,0.0558,0.0525,0.0524,0.052,0.0501,0.0425,0.0379,0.0368,0.0483,0.0482,0.0481,0.0412,0,0.0393,0.0433,0.0447,0.0505,0.0533,0.0558,0.0588,0.0618,0.0633,0.065,0.0633,0.0644,0.0634,0.0636,0.0602,0.0542,0.0509,0.0547,0.0418,0.0415,0.0376,0.0359,0.0478,0.0407,0.0406,0.0405,0.0404,0,0.0411,0.0438,0.0487,0.0549,0.0564,0.0604,0.0658,0.0686,0.0702,0.0709,0.0711,0.0693,0.067,0.0643,0.0554,0.0575,0.0512,0.046,0.0455,0.0393,0.0357,0.0396,0.0392,0.0393,0.0394,0.0395,0.0395,0,0.0411,0.0471,0.0511,0.0533,0.0598,0.0634,0.0676,0.0712,0.0736,0.0743,0.0756,0.0718,0.0702,0.0614,0.0531,0.0533,0.0412,0.0394,0.0296,0.0293,0.0336,0.0338,0.0318,0.0319,0.0319,0.0319,0.0319,0,0.0423,0.0461,0.0519,0.0545,0.061,0.0653,0.0715,0.0745,0.0775,0.0797,0.0787,0.0774,0.069,0.0617,0.0528,0.0396,0.0406,0.0301,0.0265,0.0359,0.0364,0.0332,0.0335,0.0316,0.0317,0.0317,0.0318,0,0.0414,0.0446,0.0503,0.0579,0.061,0.0659,0.075,0.0785,0.0818,0.0837,0.0841,0.0813,0.0715,0.0622,0.0476,0.0397,0.027,0.0219,0.0343,0.0316,0.0189,0.0195,0.0102,0.01,0.0098,0.0096,0.0095,0,0.041,0.0434,0.0522,0.0562,0.0602,0.0681,0.0733,0.0797,0.083,0.0848,0.0848,0.0783,0.0741,0.052,0.0413,0.0236,0.0208,0.0152,0.0162,0.0189,0.0164,0.0173,0.0181,0.0092,0.0091,0.0091,0.009,0,0.0405,0.0434,0.0481,0.0559,0.0625,0.0696,0.0774,0.0797,0.0852,0.0878,0.0832,0.0737,0.0626,0.0484,0.0354,0.0224,0.0191,0.0131,0.0134,0.0143,0.0175,0.0154,0.0164,0.0083,0.0084,0.0085,0.0085,0,0.0402,0.0429,0.0487,0.0559,0.0634,0.0693,0.0739,0.0777,0.0813,0.0834,0.0803,0.0706,0.0659,0.0475,0.0345,0.0222,0.0188,0.0147,0.0149,0.0155,0.0188,0.0238,0.013,0,0,0,0,0,0.0393,0.0422,0.0485,0.0561,0.0632,0.0678,0.0757,0.0797,0.084,0.08,0.0806,0.0695,0.051,0.0446,0.031,0.0301,0.0167,0.0137,0.0121,0.0045,0.0053,0.0078,0,0,0,0,0,0,0.0387,0.0437,0.0473,0.0547,0.0596,0.0675,0.0724,0.0755,0.0743,0.0762,0.0672,0.0641,0.0473,0.0579,0.0299,0.0266,0.0231,0.0065,0.0061,0.0041,0.0048,0.0054,0.0082,0,0,0,0,0]}]]